Home   Weather   Wodonga   Past weeks
Flag for Australia

Past Weather in Wodonga, Victoria, Australia — Yesterday and Last 2 Weeks

Now
65 °F

Mild.


Feels Like: 65 °F
Forecast: 66 / 45 °F
Wind: 8 mph from West

Location: Albury Aeroport Aws

Current Time: Apr 6, 2020 at 2:44:11 pm

Latest Report: Apr 6, 2020 at 2:00 pm


Visibility: N/A

Pressure: 30.09 "Hg

Humidity: 45%

Dew Point: 43 °F

Location of WodongaLocation

Past Weather in Wodonga — Graph

°F

Wodonga Temperature Yesterday

Maximum temperature yesterday: 61 °F (at 6:00 pm)
Minimum temperature yesterday: 47 °F (at 6:00 am)
Average temperature yesterday: 56 °F

High & Low Weather Summary for the Past Weeks

 TemperatureHumidityPressure
High79 °F (Mar 29, 3:00 pm)100% (Mar 29, 9:00 pm)30.32 "Hg (Mar 29, 9:00 pm)
Low47 °F (Apr 5, 6:00 am)26% (Mar 25, 6:00 pm)29.35 "Hg (Apr 4, 4:00 am)
Average63 °F68%30.01 "Hg
* Reported Mar 22 1:00 pm — Apr 6 12:00 pm, Wodonga. Weather by CustomWeather, © 2020

Note: Actual official high and low records may vary slightly from our data, if they occured in-between our weather recording intervals... More about our weather records

Wodonga Weather History for the Previous 24 Hours

Scroll right to see more
 ConditionsComfort  
Time TempWeatherWind HumidityBarometerVisibility
12:00 pm
Mon, Apr 6
63 °FPassing clouds.9 mph57%30.11 "HgN/A
11:00 am61 °FRefreshingly cool.8 mph57%30.12 "HgN/A
9:00 am58 °FPassing clouds.10 mph74%30.12 "HgN/A
8:00 am55 °FCool.7 mph87%30.10 "HgN/A
6:00 am55 °FOvercast.9 mph95%30.05 "HgN/A
5:00 am54 °FCool.5 mph97%30.03 "HgN/A
3:00 am56 °FOvercast.12 mph94%29.98 "HgN/A
2:00 am56 °FCool.9 mph93%29.98 "HgN/A
12:00 am58 °FOvercast.10 mph92%29.98 "HgN/A
11:00 pm
Sun, Apr 5
56 °FCool.9 mph98%29.98 "HgN/A
9:00 pm61 °FOvercast.12 mph72%29.97 "HgN/A
8:00 pm61 °FCool.15 mph69%29.95 "HgN/A
6:00 pm61 °FOvercast.14 mph66%29.91 "HgN/A
5:00 pm61 °FCool.10 mph67%29.90 "HgN/A
3:00 pm61 °FOvercast.16 mph64%29.89 "HgN/A
2:00 pm60 °FCool.14 mph65%29.90 "HgN/A
Weather by CustomWeather, © 2020

See weather overview

Advertising